www.pogodaiklimat.ru

АРХИВ ПОГОДЫ в Сиэтле

Время (UTC), дата Ветер
(напр.,м/с)
 
Видим.   Явления Облачность Т
(С)
Тd
(С)
f
(%)
Тe
(С)
Тes
(С)
Комфортность

P
(гПа)

Po
(гПа)
Тmin
(С)
Tmax
(С)
R
(мм)
SD
(см)
20:53 23.04 С  16 км    2/0 7500 м
[верхняя] 
+20.6  +3.3  32  +21  +22  комфорт  1025.3  1008.9         
21:53 23.04 СЗ  16 км    2/0 7500 м
[верхняя] 
+19.4  +2.8  33  +19  +20    1024.8  1008.2         
22:53 23.04 С  16 км    2/0 7500 м
[верхняя] 
+19.4  +2.8  33  +19  +20    1024.3  1007.9         
23:53 23.04 С  16 км    2/0 7500 м
[верхняя] 
+18.9  +3.9  37  +18  +19    1024.2  1007.9         
00:53 24.04 С  16 км    2/0 7500 м
[верхняя] 
+18.3  +2.8  36  +18  +18    1023.6  1007.2         
01:53 24.04 С  16 км    2/0 7500 м
[верхняя] 
+17.8  +1.1  32  +17  +17    1023.4  1006.9         
02:53 24.04 СВ  16 км    2/0 7500 м
[верхняя] 
+16.1  +1.7  38  +15  +15    1023.8  1007.2         
03:53 24.04 СВ  16 км    ясно  +16.1  +1.7  38  +15  +15    1024.1  1007.6         
04:53 24.04 СВ  16 км    ясно  +16.1  -0.6  32  +15  +15    1024.0  1007.6    +19.4     
05:53 24.04 СВ  16 км    ясно  +14.4  +1.1  40  +13  +13    1024.2  1007.9         
06:53 24.04 СВ  16 км    ясно  +13.9  +1.1  42  +12  +12    1024.1  1007.9         
07:53 24.04 СВ  16 км    ясно  +13.3  +0.6  42  +12  +12    1023.7  1007.6         
08:53 24.04 С  16 км    ясно  +10.0  +2.2  58  +7  +7    1023.5  1007.2         
09:53 24.04 С  16 км    ясно  +10.6  +2.2  56  +8  +8    1023.3  1006.9         
10:53 24.04 С  16 км    ясно  +11.1  +1.7  52  +8  +8    1023.2  1006.9    +16.1     
11:53 24.04 СВ  16 км    5/0 7500 м
[верхняя] 
+11.1  +1.7  52  +8  +8    1023.0  1006.9         
12:53 24.04 В  16 км    8/0 7500 м
[верхняя] 
+12.8  +1.1  45  +12  +12    1023.0  1006.6         
13:53 24.04 СЗ  16 км    8/0 7500 м
[верхняя] 
+12.2  +3.9  57  +11  +12    1023.2  1006.9         
14:53 24.04 С  16 км    8/0 7500 м
[верхняя] 
+16.1  +3.3  42  +15  +16    1022.9  1006.6         
15:53 24.04 С  16 км    5/0 7500 м
[верхняя] 
+19.4  +2.2  32  +19  +21    1022.5  1006.2         
16:53 24.04 В  6
{9} 
16 км    8/0 7500 м
[верхняя] 
+22.8  0.0  22  +22  +24  комфорт  1022.2  1005.9         
17:53 24.04 ЮЗ  16 км    8/0 7500 м
[верхняя] 
+22.2  +5.0  33  +23  +30  комфорт  1021.7  1005.6         
18:53 24.04 СЗ  16 км    8/0 7500 м
[верхняя] 
+22.8  +2.8  27  +22  +29  комфорт  1021.1  1004.9         
19:53 24.04 С  16 км    8/0 7500 м
[верхняя] 
+24.4  +2.8  24  +24  +31  комфорт  1020.4  1004.2         
20:53 24.04 СЗ  16 км    8/0 7500 м
[верхняя] 
+24.4  +2.8  24  +24  +27  комфорт  1020.0  1003.6         
21:53 24.04 С  16 км    8/0 7500 м
[верхняя] 
+25.0  +2.2  23  +24  +27  комфорт  1019.3  1003.2         
22:53 24.04 С  16 км    8/0 7500 м
[верхняя] 
+23.9  +2.8  25  +23  +25  комфорт  1018.7  1002.6         
23:53 24.04 С  16 км    8/0 7500 м
[верхняя] 
+22.8  +3.9  29  +23  +25  комфорт  1018.3  1002.2         
00:53 25.04 С  16 км    8/0 7500 м
[верхняя] 
+21.7  +5.6  35  +22  +24  комфорт  1017.6  1001.6         
01:53 25.04 С  16 км    8/0 6900 м
[верхняя] 
+18.9  +5.0  40  +19  +19    1017.5  1001.2         
02:53 25.04 С  16 км    8/0 6600 м
[верхняя] 
+17.2  +4.4  43  +16  +16    1018.1  1001.9         
03:53 25.04 С  16 км    8/0 6600 м
[верхняя] 
+15.6  +4.4  47  +14  +14    1018.5  1002.2         
04:53 25.04 С  16 км    5/0 6900 м
[верхняя] 
+16.7  +2.8  39  +15  +15    1018.6  1002.6         
05:53 25.04 С  16 км    5/0 6900 м
[верхняя] 
+15.6  +2.2  40  +14  +14    1018.6  1002.6         
06:53 25.04 С  16 км    5/0 7500 м
[верхняя] 
+14.4  +2.2  44  +12  +12    1018.7  1002.6         
07:53 25.04 С  16 км    2/0 7500 м
[верхняя] 
+12.8  +2.2  48  +11  +11    1018.8  1002.6         
08:53 25.04 С  16 км    ясно  +12.2  +2.8  53  +10  +10    1018.6  1002.6         
09:53 25.04 С  16 км    5/0 7500 м
[верхняя] 
+12.8  +2.8  51  +11  +11    1018.8  1002.6         
10:53 25.04 СВ  16 км    5/0 7500 м
[верхняя] 
+11.7  +3.3  56  +10  +10    1018.9  1002.9         
11:53 25.04 С  16 км    5/0 6000 м
[средняя] 
+11.1  +3.3  59  +9  +9    1019.2  1002.9         
12:53 25.04 СВ  16 км    5/0 6600 м
[верхняя] 
+12.2  +3.9  57  +10  +10    1019.8  1003.6         
13:53 25.04 СВ  16 км    5/0 7500 м
[верхняя] 
+13.9  +4.4  53  +12  +12    1020.3  1003.9         
14:53 25.04 С  16 км    ясно  +15.0  +5.6  53  +14  +15    1020.4  1004.2         
15:02 25.04 С  16 км    5/0 7500 м
[верхняя] 
+15.0  +5.6  53  +13  +15      1004.2         
15:53 25.04 С  16 км    5/0 7500 м
[верхняя] 
+16.7  +5.6  48  +16  +19    1020.5  1004.2         
16:53 25.04 С  16 км    5/0 4500 м
[средняя верхняя] 
+18.0  +6.0  45  +17  +20    1020.6  1004.6  +10.6       
17:53 25.04 С  16 км    5/0 4500 м
[средняя верхняя] 
+20.0  +6.1  40  +21  +26  комфорт  1020.6  1004.6         
18:53 25.04 С  5
{8} 
16 км    5/0 4500 м
[средняя верхняя] 
+20.6  +6.1  39  +21  +26  комфорт  1020.4  1004.2         

 

Местоположение метеостанции Seattle-Tacoma International Airport: широта 47.4447 долгота -122.3136 высота над уровнем моря 130 м.

В архиве по умолчанию представлена погода в Сиэтле за последние 1-2 суток. Обновление информации о фактической погоде в базе происходит ежечасно! Архивные данные за месяц целиком и за предыдущие месяцы Вы можете получить, выбрав интересующий диапазон дат из раскрывающегося списка и нажав кнопку "Ввод!".

Внимание! Архив погоды МЕТАР в базе сайта в настоящее время начинается c 1 января 2013 г. Нет смысла пытаться выбрать более раннюю дату.

Внимание! Время в таблицах - всемирное. Для получения местного времени необходимо прибавить поправку, которая в Сиэтле равна -8 ч.

Ветер - указаны скорость ветра в м/с и направление, откуда дует ветер: С - северный, СВ - северо-восточный, В - восточный, ЮВ - юго-восточный, Ю - южный, ЮЗ - юго-западный, З - западный, СЗ - северо-западный.
Видимость - горизонтальная дальность видимости в метрах или километрах. При видимости от 1 до 10 км при отсутствии осадков обычно наблюдается дымка, при ухудшении видимости до 1 км и менее - туман. В сухую погоду видимость может ухудшаться дымом, пылью или мглою.
Атмосферные явления - указаны явления, наблюдавшиеся в указанный момент времени.
Облачность - указаны через наклонную черту верхняя и нижняя облачность в баллах и высота нижней границы облаков в метрах. Внимание: облачность, как и прочие метеорологические величины в США измеряются автоматическими метеостанциями. Указанные значения в баллах носят условный характер и показывают процент времени, в течение которого, в среднем, лазерный луч высотомера отражался от облаков обратно.
T - Температура воздуха - температура, измеренная на высоте 2 м над землей.
Td - Температура точки росы - температура, при понижении до которой содержащийся в воздухе водяной пар достигнет насыщения.
f - Относительная влажность воздуха - влажноcть воздуха, измеренная на высоте 2 м над землей.
Te - Эффективная температура - температура, которую ощущает одетый по сезону человек в тени. Характеристика душности погоды. При расчете учитывается влияние влажности воздуха и скорости ветра на теплоощущения человека.
Tes - Эффективная температура на солнце - температура, которую ощущает человек, с поправкой на солнечный нагрев. Характеристика знойности погоды. Зависит от высоты солнца над горизонтом, облачности и скорости ветра. Ночью, в пасмурную погоду, а также при ветре 12 м/с и более поправка равна нулю.
P - Атмосферное давление - приведенное к уровню моря атмосферное давление.
Po - Атмосферное давление - измеренное на уровне метеостанции атмосферное давление.
Tmin - Минимальная температура - минимум температуры воздуха на высоте 2 м над землей.
Tmax - Максимальная температура - максимум температуры воздуха на высоте 2 м над землей.
R - Количество осадков - Количество выпавших осадков за 3 или 6 часов, мм.
SD - Снежный покров - Высота снежного покрова, см.